Pontiac, IL

2:20 AM CDT on June 25, 2017 (GMT -0500)
Pontiac Municipal

Weather History for KPNT - October, 2012

Change the Weather History Date:

Wednesday, October 3, 2012

  Actual Average Record
Temperature  
Mean Temperature 62 °F -  
Max Temperature 66 °F 71 °F 94 °F (1922)
Min Temperature 57 °F 46 °F 29 °F (1974)
Degree Days  
Heating Degree Days 4    
Growing Degree Days 12 (Base 50)    
Moisture  
Dew Point 56 °F    
Average Humidity 82    
Maximum Humidity 100    
Minimum Humidity 68    
Precipitation  
Precipitation 0.08 in - - ()
Sea Level Pressure  
Sea Level Pressure 29.96 in    
Wind  
Wind Speed 6 mph (West)    
Max Wind Speed 13 mph    
Max Gust Speed -    
Visibility 8 miles    
Events Rain    
Averages and records for this station are not official NWS values.
T = Trace of Precipitation, MM = Missing Value Source: NWS Daily Summary

Daily Weather History Graph

Daily Weather History Graph

Search for Another Location

Airport or City:

Trip Planner

Search our weather history database for the weather conditions in past years. The results will help you decide how hot, cold, wet, or windy it might be!

Date:

Astronomy

Oct. 03, 2012 Rise Set
Actual Time 6:53 AM CDT 6:32 PM CDT
Civil Twilight 6:26 AM CDT 6:59 PM CDT
Nautical Twilight 5:54 AM CDT 7:31 PM CDT
Astronomical Twilight 5:22 AM CDT 8:03 PM CDT
Moon 8:22 PM CDT (10/3) 10:18 AM CDT (10/3)
Length of Visible Light 12h 33m
Length of Day
11h 38m
Waning Gibbous, 88% of the Moon is Illuminated
Oct 3
Waning Gibbous
Oct 8
Last Quarter
Oct 15
New
Oct 21
First Quarter
Oct 29
Full

Hourly Weather History & Observations

Time (CDT) Temp. Dew Point Humidity Pressure Visibility Wind Dir Wind Speed Gust Speed Precip Events Conditions
12:15 AM 62.6 °F 53.6 °F 72% 29.88 in 10.0 mi NE 6.9 mph - N/A   Overcast
12:35 AM 62.6 °F 53.6 °F 72% 29.88 in 10.0 mi NNE 9.2 mph - N/A   Overcast
12:55 AM 62.6 °F 53.6 °F 72% 29.88 in 10.0 mi NNE 6.9 mph - N/A   Overcast
1:15 AM 62.6 °F 53.6 °F 72% 29.88 in 10.0 mi NE 9.2 mph - N/A   Overcast
1:35 AM 62.6 °F 55.4 °F 77% 29.88 in 10.0 mi NE 9.2 mph - N/A   Overcast
1:55 AM 62.6 °F 53.6 °F 72% 29.88 in 10.0 mi NE 10.4 mph - N/A   Overcast
2:15 AM 62.6 °F 53.6 °F 72% 29.88 in 10.0 mi NE 9.2 mph - N/A   Overcast
2:35 AM 60.8 °F 55.4 °F 82% 29.88 in 10.0 mi NE 6.9 mph - N/A   Overcast
2:55 AM 60.8 °F 55.4 °F 82% 29.88 in 10.0 mi NE 8.1 mph - N/A   Overcast
3:15 AM 60.8 °F 55.4 °F 82% 29.88 in 7.0 mi NE 4.6 mph - N/A   Overcast
3:35 AM 60.8 °F 55.4 °F 82% 29.88 in 7.0 mi NE 4.6 mph - N/A   Overcast
3:55 AM 60.8 °F 55.4 °F 82% 29.88 in 7.0 mi Calm Calm - N/A   Overcast
4:15 AM 60.8 °F 55.4 °F 82% 29.89 in 5.0 mi Calm Calm - N/A Rain Rain
4:35 AM 60.8 °F 55.4 °F 82% 29.90 in 7.0 mi Calm Calm - N/A   Overcast
4:55 AM 60.8 °F 55.4 °F 82% 29.90 in 7.0 mi Calm Calm - N/A Rain Light Rain
5:15 AM 60.8 °F 57.2 °F 88% 29.90 in 4.0 mi NNE 3.5 mph - N/A   Drizzle
5:35 AM 60.8 °F 57.2 °F 88% 29.91 in 4.0 mi NNE 3.5 mph - N/A Rain Light Rain
5:55 AM 60.8 °F 57.2 °F 88% 29.91 in 3.0 mi Calm Calm - N/A   Light Drizzle
6:15 AM 60.8 °F 59.0 °F 94% 29.92 in 3.0 mi WNW 3.5 mph - N/A   Drizzle
6:35 AM 60.8 °F 59.0 °F 94% 29.92 in 2.5 mi WNW 4.6 mph - N/A Rain Rain
6:55 AM 59.0 °F 55.4 °F 88% 29.93 in 5.0 mi West 5.8 mph - 0.01 in   Drizzle
7:15 AM 59.0 °F 55.4 °F 88% 29.93 in 7.0 mi West 4.6 mph - 0.01 in   Drizzle
7:35 AM 59.0 °F 57.2 °F 94% 29.94 in 2.0 mi West 9.2 mph - 0.01 in   Drizzle
7:55 AM 57.2 °F 55.4 °F 94% 29.95 in 1.5 mi West 6.9 mph - 0.01 in   Light Drizzle
8:15 AM 57.2 °F 55.4 °F 94% 29.94 in 1.5 mi West 8.1 mph - 0.01 in   Light Drizzle
8:35 AM 57.2 °F 55.4 °F 94% 29.95 in 1.8 mi WNW 8.1 mph - 0.01 in   Overcast
8:55 AM 57.2 °F 55.4 °F 94% 29.95 in 1.2 mi West 10.4 mph - 0.01 in   Overcast
9:15 AM 57.2 °F 57.2 °F 100% 29.94 in 1.8 mi West 12.7 mph - N/A   Overcast
9:35 AM 57.2 °F 57.2 °F 100% 29.96 in 2.0 mi West 6.9 mph - N/A   Overcast
9:55 AM 57.2 °F 57.2 °F 100% 29.96 in 2.5 mi West 6.9 mph - N/A   Overcast
10:15 AM 57.2 °F 57.2 °F 100% 29.96 in 2.0 mi West 6.9 mph - N/A   Overcast
10:35 AM 57.2 °F 57.2 °F 100% 29.96 in 2.5 mi West 9.2 mph - N/A   Overcast
10:55 AM 57.2 °F 57.2 °F 100% 29.97 in 4.0 mi West 5.8 mph - N/A   Overcast
11:15 AM 60.8 °F 57.2 °F 88% 29.97 in 4.0 mi West 5.8 mph - N/A   Mostly Cloudy
11:35 AM 60.8 °F 57.2 °F 88% 29.97 in 4.0 mi West 6.9 mph - N/A   Mostly Cloudy
11:55 AM 62.6 °F 57.2 °F 82% 29.97 in 10.0 mi West 8.1 mph - N/A   Overcast
12:15 PM 62.6 °F 57.2 °F 82% 29.97 in 10.0 mi West 5.8 mph - N/A   Overcast
12:35 PM 62.6 °F 57.2 °F 82% 29.97 in 10.0 mi West 4.6 mph - N/A   Overcast
12:55 PM 62.6 °F 57.2 °F 82% 29.97 in 10.0 mi WSW 5.8 mph - N/A   Overcast
1:15 PM 64.4 °F 57.2 °F 77% 29.96 in 10.0 mi West 4.6 mph - N/A   Overcast
1:35 PM 64.4 °F 55.4 °F 73% 29.96 in 10.0 mi West 5.8 mph - N/A   Overcast
1:55 PM 64.4 °F 55.4 °F 73% 29.96 in 10.0 mi WSW 5.8 mph - N/A   Overcast
2:15 PM 64.4 °F 57.2 °F 77% 29.96 in 10.0 mi WSW 8.1 mph - N/A   Overcast
2:35 PM 64.4 °F 57.2 °F 77% 29.96 in 10.0 mi SW 6.9 mph - N/A   Mostly Cloudy
2:55 PM 66.2 °F 57.2 °F 73% 29.96 in 10.0 mi SW 6.9 mph - N/A   Scattered Clouds
3:15 PM 66.2 °F 55.4 °F 68% 29.97 in 10.0 mi SW 9.2 mph - N/A   Clear
3:35 PM 66.2 °F 57.2 °F 73% 29.96 in 10.0 mi WSW 6.9 mph - N/A   Clear
3:55 PM 66.2 °F 55.4 °F 68% 29.96 in 10.0 mi SSW 6.9 mph - N/A   Clear
4:15 PM 66.2 °F 57.2 °F 73% 29.97 in 10.0 mi SW 4.6 mph - N/A   Scattered Clouds
4:35 PM 66.2 °F 57.2 °F 73% 29.97 in 10.0 mi SW 4.6 mph - N/A   Mostly Cloudy
4:55 PM 66.2 °F 55.4 °F 68% 29.97 in 10.0 mi Calm Calm - N/A   Overcast
5:15 PM 66.2 °F 55.4 °F 68% 29.97 in 10.0 mi Calm Calm - N/A   Overcast
5:35 PM 66.2 °F 55.4 °F 68% 29.98 in 10.0 mi Calm Calm - N/A   Overcast
5:55 PM 66.2 °F 55.4 °F 68% 29.98 in 10.0 mi Calm Calm - N/A   Mostly Cloudy
6:15 PM 66.2 °F 57.2 °F 73% 29.98 in 10.0 mi Calm Calm - N/A   Mostly Cloudy
6:35 PM 64.4 °F 57.2 °F 77% 29.99 in 10.0 mi Calm Calm - N/A   Mostly Cloudy
6:55 PM 64.4 °F 57.2 °F 77% 29.99 in 10.0 mi Calm Calm - N/A   Scattered Clouds
7:15 PM 62.6 °F 57.2 °F 82% 29.99 in 10.0 mi SE 4.6 mph - N/A Rain Rain
7:35 PM 62.6 °F 57.2 °F 82% 30.00 in 10.0 mi SE 5.8 mph - N/A   Overcast
7:55 PM 62.6 °F 57.2 °F 82% 30.01 in 10.0 mi SSE 4.6 mph - N/A   Overcast
8:15 PM 62.6 °F 57.2 °F 82% 30.01 in 10.0 mi SSE 8.1 mph - N/A   Overcast
8:35 PM 62.6 °F 57.2 °F 82% 30.02 in 7.0 mi SW 4.6 mph - N/A Rain Light Rain
8:55 PM 62.6 °F 57.2 °F 82% 30.03 in 10.0 mi SW 3.5 mph - N/A Rain Light Rain
9:15 PM 62.6 °F 57.2 °F 82% 30.03 in 10.0 mi SW 4.6 mph - N/A Rain Light Rain
9:35 PM 62.6 °F 55.4 °F 77% 30.04 in 10.0 mi SW 5.8 mph - N/A   Light Drizzle
9:55 PM 62.6 °F 55.4 °F 77% 30.04 in 10.0 mi South 5.8 mph - N/A Rain Light Rain
10:15 PM 60.8 °F 55.4 °F 82% 30.04 in 10.0 mi Calm Calm - N/A   Drizzle
10:35 PM 60.8 °F 55.4 °F 82% 30.05 in 10.0 mi West 3.5 mph - N/A   Light Drizzle
10:55 PM 60.8 °F 55.4 °F 82% 30.05 in 10.0 mi Calm Calm - N/A   Overcast
11:15 PM 60.8 °F 53.6 °F 77% 30.05 in 10.0 mi West 3.5 mph - 0.01 in Rain Rain
11:35 PM 60.8 °F 53.6 °F 77% 30.05 in 7.0 mi Calm Calm - 0.04 in Rain Rain
11:55 PM 60.8 °F 53.6 °F 77% 30.05 in 10.0 mi SSE 5.8 mph - 0.05 in Rain Light Rain